Meteo Giornale » Osservazioni meteo Gran Bretagna » Londra City AP

ore: 01:50 - Osservazioni Meteo Londra City AP
Lat. 51° 30' N Lon. 0° 30' W Alt. 5 metri s.l.m.

coperto Europe/London

19 °C

Coperto

Temp. 24 Ore

16 °C

26 °C

Ovest/Sud-Ovest

31.5 Km/h

Dew point 15 °C

Umidità 77 %

Visibilità  10 Km

Il sole sorge alle ore 04:42

Il sole tramonta alle ore 21:24

Data e Ora Cielo e Fenomeni T °C DP °C Um. % Pres. hPa Vis. km Vento km/h
Oggi h: 01:50 coperto Coperto 19 15 77 1020 10 O/SO 31.5
Oggi h: 01:20 coperto Coperto 19 16 82 1020 10 O/SO 24
Oggi h: 00:50 coperto Coperto 19 16 82 1020 10 O/SO 24
Oggi h: 00:20 molto_nuvoloso Molto Nuvoloso 19 15 77 1020 10 O/SO 22.2
Ieri h: 23:50 molto_nuvoloso Molto Nuvoloso 19 15 77 1020 10 O/SO 22.2
Ieri h: 23:20 molto_nuvoloso Molto Nuvoloso 19 15 77 1020 10 O/SO 22.2
Ieri h: 22:50 molto_nuvoloso Molto Nuvoloso 19 15 77 1020 10 O/SO 20.3
Ieri h: 22:20 coperto Coperto 20 15 72 1020 10 SO 24
Ieri h: 21:50 molto_nuvoloso Molto Nuvoloso 20 15 72 1020 10 O/SO 27.8
Ieri h: 21:20 molto_nuvoloso Molto Nuvoloso 20 14 68 1020 10 O/SO 29.6
Ieri h: 20:50 molto_nuvoloso Molto Nuvoloso 21 14 64 1019 10 O/SO 24
Ieri h: 20:20 molto_nuvoloso Molto Nuvoloso 21 14 64 1019 10 O/SO 27.8
Ieri h: 19:50 nuvoloso Nuvoloso 22 14 60 1019 10 SO 27.8
Ieri h: 19:20 nuvoloso Nuvoloso 23 14 56 1019 10 O/SO 29.6
Ieri h: 18:50 molto_nuvoloso Molto Nuvoloso 24 14 53 1018 10 O/SO 25.9
Ieri h: 18:20 molto_nuvoloso Molto Nuvoloso 25 14 50 1018 10 O 25.9
Ieri h: 17:50 molto_nuvoloso Molto Nuvoloso 25 14 50 1018 10 O/SO 27.8
Ieri h: 17:20 poco_nuvoloso Poco Nuvoloso 25 14 50 1018 10 O 29.6
Ieri h: 16:50 nuvoloso Nuvoloso 26 13 44 1018 10 O 29.6
Ieri h: 16:20 poco_nuvoloso Poco Nuvoloso 25 13 47 1018 10 O 29.6
Ieri h: 15:50 sereno Sereno 26 12 41 1018 10 O 29.6
Ieri h: 15:20 sereno Sereno 26 11 39 1018 10 O 22.2
Ieri h: 13:50 sereno Sereno 24 10 41 1019 10 O/SO 22.2
Ieri h: 13:20 sereno Sereno 23 11 46 1019 10 O/SO 25.9
Ieri h: 12:50 sereno Sereno 22 11 49 1019 10 O/SO 22.2
Ieri h: 12:20 sereno Sereno 21 11 52 1019 10 O 25.9
Ieri h: 11:50 nuvoloso Nuvoloso 20 11 56 1019 10 O/SO 25.9
Ieri h: 11:20 molto_nuvoloso Molto Nuvoloso 19 12 63 1019 10 O/SO 20.3
Ieri h: 10:50 molto_nuvoloso Molto Nuvoloso 19 11 59 1019 10 O 29.6
Ieri h: 10:20 molto_nuvoloso Molto Nuvoloso 19 11 59 1019 10 O 22.2
Ieri h: 09:50 coperto Coperto 18 11 63 1019 10 O/SO 25.9
Ieri h: 09:20 molto_nuvoloso Molto Nuvoloso 18 12 67 1019 10 O/SO 27.8
Ieri h: 08:50 molto_nuvoloso Molto Nuvoloso 18 12 67 1018 10 O/SO 31.5
Ieri h: 08:20 poco_nuvoloso Poco Nuvoloso 18 12 67 1018 10 O/SO 22.2
Ieri h: 07:50 molto_nuvoloso Molto Nuvoloso 17 12 72 1018 10 O/SO 24
Ieri h: 07:20 nuvoloso Nuvoloso 17 12 72 1017 10 O/SO 29.6
Ieri h: 06:50 nuvoloso Nuvoloso 17 13 77 1017 10 O/SO 18.5
Ieri h: 06:20 coperto Coperto 16 13 82 1017 10 O/SO 22.2
Ieri h: 05:50 coperto Coperto 16 13 82 1017 10 O 24
Ieri h: 05:20 coperto_pioggia Pioggia 16 15 93 1017 5 O/SO 22.2
Ieri h: 04:50 coperto Coperto 17 15 88 1017 7 O/SO 20.3
Ieri h: 04:20 molto_nuvoloso Molto Nuvoloso 16 15 93 1017 10 O/SO 18.5
Ieri h: 03:50 molto_nuvoloso Molto Nuvoloso 16 15 93 1016 6 SO 18.5
Ieri h: 03:20 coperto Coperto 16 15 93 1016 10 SO 16.7
Ieri h: 02:50 coperto Coperto 17 15 88 1016 10 O/SO 16.7